This is the latest recevied weather packets stored in our database for station/object W4SNA-2. If no packets are shown the sender has not sent any weather packets the latest 10 day(s).
| Time | Temp. | Humidity | Pressure | Rain* | Wind** | Luminosity | Snow |
|---|---|---|---|---|---|---|---|
| 1777452627 | 12.78° C | 99% | 1015.6 hPa | 0 mm | - | - | - |
| 1777452328 | 12.78° C | 99% | 1015.6 hPa | 0 mm | - | - | - |
| 1777452028 | 12.78° C | 99% | 1015.6 hPa | 0 mm | - | - | - |
| 1777451728 | 12.22° C | 99% | 1015.7 hPa | 0 mm | - | - | - |
| 1777451428 | 12.22° C | 99% | 1015.5 hPa | 0 mm | - | - | - |
| 1777451127 | 12.22° C | 99% | 1015.6 hPa | 0 mm | - | - | - |
| 1777450827 | 12.22° C | 98% | 1015.5 hPa | 0 mm | - | - | - |
| 1777450527 | 12.22° C | 98% | 1015.3 hPa | 0 mm | - | - | - |
| 1777450227 | 12.22° C | 98% | 1015.1 hPa | 0 mm | - | - | - |
| 1777449811 | 12.78° C | 99% | 1014.9 hPa | 0 mm | - | - | - |
| 1777449514 | 12.22° C | 97% | 1014.7 hPa | 0 mm | - | - | - |
| 1777449213 | 12.22° C | 97% | 1014.8 hPa | 0 mm | - | - | - |
| 1777448912 | 12.78° C | 96% | 1015.1 hPa | 0 mm | - | - | - |
| 1777448611 | 13.33° C | 97% | 1015.1 hPa | 0 mm | - | - | - |
| 1777448312 | 13.89° C | 97% | 1014.9 hPa | 0 mm | - | - | - |
| 1777448011 | 13.89° C | 97% | 1015 hPa | 0 mm | - | - | - |
| 1777447717 | 13.33° C | 96% | 1015.2 hPa | 0 mm | - | - | - |
| 1777447411 | 13.33° C | 95% | 1015.2 hPa | 0 mm | - | - | - |
| 1777447111 | 13.89° C | 95% | 1015.1 hPa | 0 mm | - | - | - |
| 1777446811 | 14.44° C | 95% | 1015.1 hPa | 0 mm | - | - | - |
| 1777446512 | 14.44° C | 95% | 1015.1 hPa | 0 mm | - | - | - |
| 1777446211 | 14.44° C | 95% | 1015.1 hPa | 0 mm | - | - | - |
| 1777445913 | 14.44° C | 92% | 1015.1 hPa | 0 mm | - | - | - |
| 1777445611 | 15° C | 93% | 1015.4 hPa | 0 mm | - | - | - |
| 1777445311 | 15° C | 93% | 1015.4 hPa | 0 mm | - | - | - |
* Rain latest hour (hover to see other rain measurements)
** Current wind speed in m/s (hover to see current wind gust speed)